EW4907 Weather Reports


Display with metric or nautical units.
time (UTC)temp
F
wind
direction
speed
MPH
gust
MPH
rain 1hr
in
rain 24hr
in
rain mn
in
humidity
%
barometer
mb
20260503031534 65 132 1.0 2.0 0.00 0.00 0.00 51 1022.7
20260503030026 65 111 1.0 4.0 0.00 0.00 0.00 51 1022.6
20260503024524 65 101 2.0 4.0 0.00 0.00 0.00 51 1022.6
20260503023040 65 90 2.0 4.0 0.00 0.00 0.00 51 1022.3
20260503021523 65 94 2.0 5.0 0.00 0.00 0.00 51 1022.0
20260503020022 65 94 3.0 4.0 0.00 0.00 0.00 51 1021.8
20260503014522 66 77 2.0 4.0 0.00 0.00 0.00 50 1021.7
20260503013021 66 79 2.0 4.0 0.00 0.00 0.00 48 1021.8
20260503011520 67 76 2.0 3.0 0.00 0.00 0.00 47 1021.7
20260503010029 69 70 2.0 3.0 0.00 0.00 0.00 45 1021.5
20260503004519 70 63 2.0 3.0 0.00 0.00 0.00 43 1021.5
20260503003019 70 32 3.0 6.0 0.00 0.00 0.00 42 1021.5
20260503001521 71 31 3.0 8.0 0.00 0.00 0.00 38 1021.4
20260503000023 71 3 2.0 10.0 0.00 0.00 0.00 39 1021.4
20260502234517 71 61 4.0 7.0 0.00 0.00 0.00 38 1021.3
20260502233016 71 49 3.0 9.0 0.00 0.00 0.00 40 1021.4
20260502231520 71 77 3.0 6.0 0.00 0.00 0.00 41 1021.3
20260502230016 71 79 7.0 15.0 0.00 0.01 0.00 38 1021.4
20260502224515 71 77 6.0 13.0 0.00 0.01 0.00 38 1021.2
20260502223015 72 55 5.0 16.0 0.00 0.01 0.00 38 1021.3
20260502221514 72 66 7.0 11.0 0.00 0.01 0.00 37 1021.4
20260502220013 71 6 7.0 19.0 0.00 0.13 0.00 38 1021.4
20260502214512 71 11 6.0 12.0 0.00 0.13 0.00 36 1021.6
20260502213014 72 61 6.0 12.0 0.00 0.13 0.00 38 1021.7
20260502211511 71 31 5.0 13.0 0.00 0.13 0.00 38 1021.9
20260502210010 72 75 5.0 13.0 0.00 0.14 0.00 39 1022.1
20260502204519 71 91 4.0 13.0 0.00 0.14 0.00 42 1022.2
20260502203015 71 58 9.0 15.0 0.00 0.14 0.00 37 1022.6
20260502201506 70 55 7.0 15.0 0.00 0.14 0.00 40 1022.8
20260502200004 70 25 5.0 10.0 0.00 0.24 0.00 42 1022.9
20260502194502 70 71 5.0 13.0 0.00 0.24 0.00 42 1023.0
20260502193001 70 18 8.0 15.0 0.00 0.24 0.00 45 1023.0
20260502191604 69 63 5.0 11.0 0.00 0.24 0.00 46 1023.1
20260502190156 69 58 3.0 14.0 0.00 0.24 0.00 50 1023.1
20260502184555 68 70 5.0 13.0 0.00 0.28 0.00 51 1023.3
20260502183054 68 347 3.0 16.0 0.00 0.28 0.00 50 1023.4
20260502181554 67 352 5.0 13.0 0.00 0.28 0.00 51 1023.7
20260502163042 63 319 2.0 11.0 0.00 0.51 0.00 61 1024.7
20260502161537 62 68 6.0 11.0 0.00 0.51 0.00 60 1024.8
20260502151537 59 322 4.0 11.0 0.00 0.56 0.00 69 1024.8
20260502130111 50 324 6.0 10.0 0.00 0.84 0.00 89 1023.2
20260502123101 49 322 7.0 10.0 0.00 0.84 0.00 90 1022.8
20260502121552 49 326 5.0 8.0 0.00 0.84 0.00 90 1022.4
20260502114547 48 296 4.0 6.0 0.00 1.04 0.00 92 1021.9
20260502113046 48 342 4.0 7.0 0.00 1.04 0.00 92 1021.8
20260502111550 49 346 5.0 10.0 0.00 1.04 0.00 91 1021.6
20260502110041 48 344 6.0 9.0 0.00 1.22 0.00 92 1021.4
20260502104540 48 321 5.0 9.0 0.00 1.22 0.00 92 1021.5
20260502103036 49 3 6.0 10.0 0.00 1.22 0.00 91 1021.0
20260502101534 49 319 6.0 10.0 0.00 1.22 0.00 91 1020.6
20260502091524 49 27 5.0 11.0 0.00 1.33 0.00 92 1019.7
20260502071510 50 343 5.0 11.0 0.00 1.58 0.00 91 1019.4
20260502070009 51 20 5.0 10.0 0.00 1.59 0.00 91 1019.3
20260502064515 51 360 5.0 12.0 0.00 1.59 0.00 92 1019.3
20260502063008 51 23 4.0 10.0 0.00 1.59 0.00 92 1019.4
20260502061503 50 4 5.0 11.0 0.00 1.59 0.00 93 1019.5
20260502060101 50 344 4.0 10.0 0.00 1.59 0.00 94 1019.6
20260502054607 50 342 4.0 8.0 0.00 1.59 0.00 93 1019.8
20260502053102 51 335 4.0 9.0 0.00 1.59 0.00 92 1019.5
20260502051552 51 358 4.0 10.0 0.00 1.59 0.00 91 1019.4
20260502050053 51 340 4.0 10.0 0.00 1.59 1.59 91 1019.2
20260502044548 51 31 6.0 13.0 0.00 1.59 1.59 91 1019.1
20260502043048 51 342 4.0 11.0 0.00 1.59 1.59 91 1019.3
20260502041553 52 46 5.0 12.0 0.00 1.59 1.59 91 1019.4
20260502040044 52 23 5.0 12.0 0.00 1.59 1.59 91 1019.2
20260502034544 52 26 6.0 12.0 0.00 1.59 1.59 91 1019.1
20260502033043 52 326 7.0 12.0 0.00 1.59 1.59 91 1019.3